Regional Weather Roundup
Issued by NWS

Current Version | Previous Version | Text Only | Print | Product List | Glossary On
Versions: 1 2 3 4 5 6 7 8 9 10 11 12 13 14 15 16 17 18 19 20 21 22 23 24 25 26 27 28 29 30 31 32 33 34 35 36 37 38 39 40 41 42 43 44 45 46 47 48 49 50
000
ASUS45 KTFX 050619
RWRMT
MONTANA REGIONAL WEATHER ROUNDUP
NATIONAL WEATHER SERVICE GREAT FALLS MT
1200 AM MDT SAT SEP 05 2015

NOTE: "FAIR" INDICATES FEW OR NO CLOUDS BELOW 12000 FEET WITH NO
SIGNIFICANT WEATHER AND/OR OBSTRUCTIONS TO VISIBILITY.

MTZ001>007-043-050700-
WEST OF THE DIVIDE

CITY           SKY/WX    TMP DP  RH WIND       PRES   REMARKS
KALISPELL      MOCLDY    54  37  52 NE15      29.91F
MISSOULA       CLOUDY    56  42  59 MISG      29.87S
BUTTE          CLOUDY    46  43  89 NW5       29.94R
MULLAN PASS    CLOUDY    43  37  79 CALM      29.89S
EUREKA           N/A     55  36  47 CALM      29.94F
HAMILTON         N/A     52  45  76 SW5       29.85R
LIBBY            N/A     57  36  44 N3        29.91S
PLAINS           N/A     59  41  51 CALM      29.88R
RONAN            N/A     52  47  83 CALM      29.92F
THOMPSON FALLS   N/A     61  40  45 N10       29.88S
$$

MTZ008-052>055-050700-
SOUTHWEST MONTANA

CITY           SKY/WX    TMP DP  RH WIND       PRES   REMARKS
BOZEMAN        CLOUDY    51  49  92 SW7       29.93S
DILLON         CLOUDY    46  41  82 E7        29.88F
W YELLOWSTONE  CLOUDY    48  46  93 N3        29.92F
THREE FORKS      N/A     52  29  41 NE2       29.92F
TWIN BRIDGES     N/A     50  40  68 N9        29.89F
$$

MTZ009-010-012-014-046-048-049-054-050700-
EAST SLOPES AND CENTRAL MONTANA

CITY           SKY/WX    TMP DP  RH WIND       PRES   REMARKS
CUT BANK       CLOUDY    44  43  96 N14       30.03F
GREAT FALLS    CLOUDY    49  48  97 N12       29.98R
MALMSTROM AFB  CLOUDY    50  50 100 NE16      29.98F
HELENA         CLOUDY    50  44  80 W9        29.95R
CONRAD           N/A     48  48 100 W2        30.05S
$$

MTZ011-013-016-021-045-047-050-051-050700-
NORTH CENTRAL MONTANA

CITY           SKY/WX    TMP DP  RH WIND       PRES   REMARKS
HAVRE          RAIN      51  49  92 N6        30.05R
LEWISTOWN      CLOUDY    52  48  86 E9        30.01R
N BAR RANCH    CLOUDY    50  46  87 N5        30.02S
CHINOOK          N/A     52  50  93 CALM      30.02R
FORT BENTON      N/A     52  50  93 N10       29.98F
$$

MTZ017>020-022>027-061-062-050700-
NORTHEAST MONTANA

CITY           SKY/WX    TMP DP  RH WIND       PRES   REMARKS
GLASGOW        CLOUDY    57  45  64 NE17      29.97R
JORDAN           N/A     58  47  66 N15G24    29.95R
SIDNEY         CLOUDY    64  55  72 NE13        N/A
WOLF POINT     CLOUDY    64  49  57 NE15G24   29.94R
MALTA            N/A     51  46  83 NE8       29.90F
PLENTYWOOD       N/A     57  46  67 N17       29.95F
POPLAR           N/A     63  48  59 N16       29.93R
SCOBEY           N/A     54  41  61 N14       29.95F
$$

MTZ028>42-056>058-050700-
SOUTHCENTRAL AND SOUTHEAST MONTANA

CITY           SKY/WX    TMP DP  RH WIND       PRES   REMARKS
BAKER          LGT RAIN  63  58  83 S8        29.93F
BILLINGS       MOCLDY    56  47  71 N7        29.94F
LIVINGSTON     CLOUDY    53  47  79 E16G25    29.94F
MILES CITY     MOCLDY    64  58  80 N8        29.87R
EKALAKA          N/A     60  55  83 NE5       29.88F
FORSYTH          N/A     61  52  72 NW8       29.88S
LAUREL           N/A     56  46  69 NW3       29.94F
ROUNDUP          N/A     51  45  80 N5        29.89R
$$

REGIONAL REPORTS...DAKOTAS

CITY           SKY/WX    TMP DP  RH WIND       PRES   REMARKS
WILLISTON      CLOUDY    59  58  96 N14       29.92F FOG
MINOT          LGT RAIN  61  59  93 N13       29.89S FOG
DICKINSON      CLOUDY    62  60  93 NE13      29.86S FOG
BEACH          TSTM      63  63 100 W10       29.95R
CROSBY         CLOUDY    57  57 100 NE12      29.97R FOG
BISMARCK       CLEAR     69  65  86 NE5       29.83R
GRAND FORKS    PTCLDY    65  64  97 N7        29.86R
FARGO          MOCLDY    74  68  81 SE8       29.83S
BUFFALO SD       N/A     65  59  81 N14       29.80F
RAPID CITY     PTCLDY    63  59  87 CALM      29.82R
$$

REGIONAL REPORTS...WYOMING/IDAHO/WASHINGTON

CITY           SKY/WX    TMP DP  RH WIND       PRES   REMARKS
GILLETTE       PTCLDY    59  52  77 NW6       29.89R
SHERIDAN       MOCLDY    59  50  72 NW15      29.91F
BUFFALO WY     PTCLDY    59  49  69 NW14G28   29.95R
CODY           MOCLDY    54  43  66 NW7       29.94S
YELLOWSTONE LA   N/A     45  43  93 W7        30.04R
IDAHO FALLS    MOCLDY    59  46  62 N7        29.73F
SALMON         CLOUDY    48  46  93 SE6       29.85R
BOISE          MOCLDY    52  45  77 W10       29.87R
SPOKANE        LGT RAIN  59  38  45 N13       29.82S
$$

REGIONAL REPORTS...ALBERTA

CITY           SKY/WX    TMP DP  RH WIND       PRES   REMARKS
EDMONTON       CLOUDY    46  41  81 W3        30.19S
CALGARY        LGT RAIN  43  41  93 N9        30.16S FOG
LETHBRIDGE     CLOUDY    48  46  93 N9G30     30.05F
MEDICINE HAT   LGT RAIN  48  45  87 NE6       30.10R
WATERTON GATE    N/A     39  37  93 NW2         N/A
CARDSTON         N/A     41  41 100 NW6         N/A
MILK RIVER       N/A     46  46 100 N7          N/A
ONEFOUR          N/A     48  46  93 E9          N/A
$$

REGIONAL REPORTS...SASKATCHEWAN

CITY           SKY/WX    TMP DP  RH WIND       PRES   REMARKS
SWIFT CURRENT  CLOUDY    48  45  87 NE12      30.07S
REGINA         MOCLDY    52  46  82 N9        30.04R
SASKATOON      CLOUDY    50  45  81 N10G17    30.13F
CYPRESS HILLS    N/A     41  39  93 NE5         N/A
VAL MARIE        N/A     48  46  93 NE12G18     N/A
ROCKGLEN         N/A     48  46  93 N12         N/A
ASSINIBOIA       N/A     41  39  93 N1          N/A
$$


USA.gov is the U.S. government's official web portal to all federal, state and local government web resources and services.